Regional Weather Roundup
Issued by NWS Cleveland, OH

Home | Current Version | Previous Version | Graphics & Text | Print | Product List | Glossary On
Versions: 1 2 3 4 5 6 7 8 9 10 11 12 13 14 15 16 17 18 19 20 21 22 23 24 25 26 27 28 29 30 31 32 33 34 35 36 37 38 39 40 41 42 43 44 45 46 47 48 49 50
000
ASUS41 KCLE 230710
RWRCLE
OHIO REGIONAL WEATHER ROUNDUP
NATIONAL WEATHER SERVICE WILMINGTON, OH
200 AM EST SUN NOV 23 2014

NOTE: "FAIR" INDICATES FEW OR NO CLOUDS BELOW 12,000 FEET WITH NO
SIGNIFICANT WEATHER AND/OR OBSTRUCTIONS TO VISIBILITY.

OHZ001>008-015>018-024>027-034-035-043-044-230800-
   NORTHWEST OHIO

CITY           SKY/WX    TMP DP  RH WIND       PRES   REMARKS
DEFIANCE       LGT RAIN  50  40  68 S12       29.97S
FINDLAY        CLOUDY    50  38  63 S13       29.99F
TOLEDO EXPRESS CLOUDY    50  39  66 SW9       29.97F
TOLEDO METCALF CLOUDY    50  38  63 SW12      29.99F
LIMA           LGT RAIN  50  39  66 S13       30.00S
$$

OHZ009>014-019>023-028>033-038-089-230800-
   NORTHEAST OHIO

CITY           SKY/WX    TMP DP  RH WIND       PRES   REMARKS
CLE-HOPKINS    CLOUDY    49  36  61 S10       30.05F
CLE-LAKEFRONT  CLOUDY    51  35  54 S16       30.01F
CUY CO. ARPT   NOT AVBL
LORAIN-ELYRIA  CLOUDY    50  36  58 SW9       30.02F
ASHTABULA      CLOUDY    44  34  67 S12       30.04S
AKRON-CANTON   CLOUDY    46  33  60 SW8       30.05F
WOOSTER        CLOUDY   N/A N/A N/A SW8       30.06S
MANSFIELD      CLOUDY    49  35  58 S14       30.03S
YOUNGSTOWN     CLOUDY    48  32  53 SW10      30.05F
$$

OHZ042-051>053-060>062-070>072-077>081-230800-
  SOUTHWEST OHIO

CITY           SKY/WX    TMP DP  RH WIND       PRES   REMARKS
CINC-COVINGTON CLOUDY    52  34  50 S8        30.04F
CINC-LUNKEN    CLOUDY    46  36  68 SW7       30.06F
HAMILTON       CLOUDY    52  35  52 SW5       30.05F
DAYTON         CLOUDY    51  34  52 S9        30.04S
WRIGHT-PAT AFB CLOUDY    51  34  51 S7        30.04S
DAYTON GENERAL CLOUDY    51  35  54 S10       30.04S
WILMINGTON     CLOUDY    47  34  60 S9        30.05F
$$

OHZ036-037-039>041-045>050-054>059-063>069-073>076-082>088-230800-
  CENTRAL AND SOUTHEAST OHIO

CITY           SKY/WX    TMP DP  RH WIND       PRES   REMARKS
COLUMBUS       CLOUDY    48  33  56 S7        30.06F
OSU AIRPORT    CLOUDY    46  35  65 S7        30.05S
BOLTON FIELD   CLOUDY    47  36  63 S8        30.06S
RICKENBACK AFB CLOUDY    46  34  62 S5        30.06S
NEWARK         CLOUDY    42  33  70 CALM      30.06F
MARION         CLOUDY    47  36  65 S8        30.03S
LANCASTER      CLOUDY    50  31  48 S7        30.07F
ZANESVILLE     CLOUDY    48  32  53 S5        30.08S
NEW PHILLY     CLOUDY    47  32  56 SE3       30.08F
$$


USA.gov is the U.S. government's official web portal to all federal, state and local government web resources and services.